BAW96E EGLL-EDDH

Flight info

Callsign BAW96E
Flight time 1h 8m
Altitude 37000
Route BPK Q295 SOMVA DCT MAVAS DCT VALAM DCT GASTU DCT OSTOR/N0370F230 T904 RIBSO RIBSO7A
Aircraft A320/M-SDE3FGHIRWY/LB1

Departure

Time 2026-04-20 13:38
Airport London Heathrow Airport (EGLL)

Arrival

Time 2026-04-20 14:46
Airport Hamburg Helmut Schmidt Airport (EDDH)
Time Latitude Longitude Altitude Speed Heading
2026-04-20 13:20 51.46931 -0.48573 88 ft 0 kts 360°
2026-04-20 13:29 51.46921 -0.48573 86 ft 4 kts 360°
2026-04-20 13:30 51.46897 -0.48572 86 ft 3 kts
2026-04-20 13:30 51.46880 -0.48581 90 ft 4 kts 73°
2026-04-20 13:30 51.46877 -0.48620 86 ft 4 kts 90°
2026-04-20 13:30 51.46877 -0.48636 86 ft 0 kts 90°
2026-04-20 13:34 51.46877 -0.48631 86 ft 2 kts 90°
2026-04-20 13:34 51.46877 -0.48589 89 ft 5 kts 90°
2026-04-20 13:35 51.46861 -0.48486 86 ft 13 kts 142°
2026-04-20 13:35 51.46765 -0.48470 87 ft 15 kts 178°
2026-04-20 13:35 51.46654 -0.48467 86 ft 17 kts 181°
2026-04-20 13:35 51.46593 -0.48468 86 ft 6 kts 180°
2026-04-20 13:36 51.46530 -0.48468 86 ft 13 kts 180°
2026-04-20 13:36 51.46479 -0.48399 87 ft 11 kts 93°
2026-04-20 13:36 51.46479 -0.48356 87 ft 0 kts 89°
2026-04-20 13:36 51.46479 -0.48352 87 ft 0 kts 89°
2026-04-20 13:37 51.46479 -0.48333 87 ft 12 kts 89°
2026-04-20 13:37 51.46481 -0.47803 87 ft 80 kts 89°
2026-04-20 13:37 51.46484 -0.46624 92 ft 128 kts 90°
2026-04-20 13:38 51.46494 -0.44997 227 ft 154 kts 89°
2026-04-20 13:38 51.46510 -0.43290 792 ft 155 kts 86°
2026-04-20 13:38 51.46623 -0.41550 1341 ft 162 kts 70°
2026-04-20 13:38 51.47263 -0.40001 1738 ft 173 kts 49°
2026-04-20 13:39 51.48080 -0.38528 2210 ft 182 kts 49°
2026-04-20 13:39 51.48652 -0.37480 2432 ft 194 kts 50°
2026-04-20 13:39 51.49589 -0.35751 2784 ft 218 kts 50°
2026-04-20 13:39 51.50627 -0.33792 3288 ft 240 kts 51°
2026-04-20 13:40 51.51691 -0.31702 4191 ft 245 kts 52°
2026-04-20 13:40 51.52520 -0.29296 5041 ft 251 kts 71°
2026-04-20 13:40 51.53055 -0.26619 5966 ft 254 kts 72°
2026-04-20 13:40 51.53594 -0.23880 6790 ft 260 kts 72°
2026-04-20 13:41 51.54190 -0.21118 7593 ft 264 kts 63°
2026-04-20 13:41 51.55397 -0.18941 8358 ft 267 kts 30°
2026-04-20 13:41 51.57169 -0.17992 9138 ft 273 kts 10°
2026-04-20 13:41 51.59043 -0.17361 9955 ft 276 kts 10°
2026-04-20 13:42 51.60946 -0.16795 10658 ft 284 kts 11°
2026-04-20 13:42 51.65062 -0.15252 11251 ft 321 kts 13°
2026-04-20 13:42 51.67236 -0.14305 11913 ft 325 kts 14°
2026-04-20 13:43 51.69427 -0.13303 12584 ft 330 kts 15°
2026-04-20 13:43 51.71563 -0.11883 13248 ft 336 kts 28°
2026-04-20 13:43 51.73414 -0.09523 13916 ft 344 kts 44°
2026-04-20 13:43 51.74817 -0.06364 14494 ft 352 kts 60°
2026-04-20 13:44 51.75633 -0.02592 15048 ft 360 kts 77°
2026-04-20 13:44 51.75988 0.01432 15603 ft 364 kts 80°
2026-04-20 13:44 51.76323 0.05506 16180 ft 367 kts 80°
2026-04-20 13:44 51.76662 0.09613 16740 ft 371 kts 80°
2026-04-20 13:45 51.77002 0.13763 17298 ft 375 kts 80°
2026-04-20 13:45 51.77346 0.17966 17854 ft 379 kts 80°
2026-04-20 13:45 51.77692 0.22204 18407 ft 383 kts 80°
2026-04-20 13:45 51.78043 0.26488 18898 ft 387 kts 80°
2026-04-20 13:46 51.78394 0.30772 19345 ft 392 kts 79°
2026-04-20 13:46 51.78751 0.35169 19787 ft 397 kts 79°
2026-04-20 13:46 51.79109 0.39612 20260 ft 401 kts 79°
2026-04-20 13:46 51.79469 0.44118 20703 ft 406 kts 79°
2026-04-20 13:47 51.79830 0.48664 21151 ft 411 kts 79°
2026-04-20 13:47 51.80191 0.53265 21640 ft 413 kts 79°
2026-04-20 13:47 51.80551 0.57890 22090 ft 417 kts 79°
2026-04-20 13:47 51.80938 0.62546 22558 ft 418 kts 76°
2026-04-20 13:48 51.81656 0.67075 23138 ft 414 kts 67°
2026-04-20 13:48 51.82722 0.71388 23621 ft 414 kts 63°
2026-04-20 13:48 51.83843 0.75704 24043 ft 417 kts 63°
2026-04-20 13:48 51.84970 0.80046 24398 ft 420 kts 63°
2026-04-20 13:49 51.86103 0.84425 24742 ft 424 kts 63°
2026-04-20 13:49 51.87232 0.88794 25081 ft 427 kts 63°
2026-04-20 13:49 51.88380 0.93246 25421 ft 430 kts 63°
2026-04-20 13:49 51.89538 0.97744 25769 ft 434 kts 63°
2026-04-20 13:50 51.90699 1.02270 26170 ft 435 kts 63°
2026-04-20 13:50 51.91862 1.06811 26528 ft 438 kts 63°
2026-04-20 13:50 51.93029 1.11381 26868 ft 441 kts 63°
2026-04-20 13:50 51.94207 1.15998 27203 ft 444 kts 63°
2026-04-20 13:51 51.95387 1.20630 27514 ft 447 kts 63°
2026-04-20 13:51 51.96579 1.25326 27833 ft 450 kts 63°
2026-04-20 13:51 51.97770 1.30041 28154 ft 453 kts 63°
2026-04-20 13:51 51.98966 1.34787 28476 ft 457 kts 63°
2026-04-20 13:52 52.00171 1.39571 28809 ft 460 kts 63°
2026-04-20 13:52 52.01385 1.44394 29118 ft 463 kts 63°
2026-04-20 13:52 52.02602 1.49247 29473 ft 465 kts 64°
2026-04-20 13:52 52.03819 1.54119 29882 ft 466 kts 64°
2026-04-20 13:53 52.05039 1.59004 30302 ft 467 kts 64°
2026-04-20 13:53 52.06259 1.63899 30622 ft 468 kts 64°
2026-04-20 13:53 52.07464 1.68741 31009 ft 467 kts 64°
2026-04-20 13:53 52.08675 1.73628 31391 ft 467 kts 64°
2026-04-20 13:54 52.09891 1.78545 31763 ft 467 kts 64°
2026-04-20 13:54 52.11101 1.83446 32140 ft 467 kts 64°
2026-04-20 13:54 52.12313 1.88358 32516 ft 467 kts 64°
2026-04-20 13:54 52.13523 1.93262 32888 ft 467 kts 65°
2026-04-20 13:55 52.14730 1.98166 33269 ft 467 kts 65°
2026-04-20 13:55 52.15936 2.03078 33687 ft 466 kts 65°
2026-04-20 13:55 52.17133 2.07971 34080 ft 466 kts 65°
2026-04-20 13:55 52.18332 2.12894 34417 ft 466 kts 65°
2026-04-20 13:56 52.19526 2.17799 34730 ft 465 kts 65°
2026-04-20 13:56 52.20704 2.22644 35037 ft 465 kts 65°
2026-04-20 13:56 52.21895 2.27544 35352 ft 464 kts 65°
2026-04-20 13:56 52.23078 2.32437 35659 ft 464 kts 66°
2026-04-20 13:57 52.24257 2.37337 35955 ft 463 kts 66°
2026-04-20 13:57 52.25430 2.42232 36251 ft 462 kts 66°
2026-04-20 13:57 52.26602 2.47120 36583 ft 461 kts 66°
2026-04-20 13:57 52.27766 2.51972 36933 ft 458 kts 66°
2026-04-20 13:58 52.28926 2.56823 37196 ft 458 kts 66°
2026-04-20 13:58 52.30083 2.61677 37269 ft 460 kts 66°
2026-04-20 13:58 52.32025 2.71719 37267 ft 465 kts 72°
2026-04-20 13:59 52.33815 2.81878 37260 ft 465 kts 72°
2026-04-20 13:59 52.35600 2.92058 37261 ft 465 kts 72°
2026-04-20 14:00 52.37364 3.02173 37258 ft 465 kts 72°
2026-04-20 14:00 52.39123 3.12368 37265 ft 465 kts 72°
2026-04-20 14:01 52.41490 3.22145 37258 ft 462 kts 62°
2026-04-20 14:01 52.44324 3.31612 37257 ft 462 kts 62°
2026-04-20 14:02 52.47134 3.41104 37251 ft 462 kts 62°
2026-04-20 14:02 52.49917 3.50561 37272 ft 462 kts 62°
2026-04-20 14:03 52.52704 3.60053 37273 ft 461 kts 62°
2026-04-20 14:03 52.55484 3.69552 37270 ft 461 kts 63°
2026-04-20 14:04 52.58250 3.79056 37264 ft 460 kts 63°
2026-04-20 14:04 52.61016 3.88571 37268 ft 460 kts 63°
2026-04-20 14:05 52.63765 3.98084 37265 ft 460 kts 63°
2026-04-20 14:05 52.66488 4.07547 37264 ft 460 kts 63°
2026-04-20 14:06 52.69220 4.17082 37273 ft 460 kts 63°
2026-04-20 14:06 52.71946 4.26628 37265 ft 460 kts 63°
2026-04-20 14:07 52.74672 4.36185 37263 ft 459 kts 63°
2026-04-20 14:07 52.77383 4.45746 37256 ft 459 kts 63°
2026-04-20 14:08 52.80078 4.55317 37252 ft 459 kts 63°
2026-04-20 14:08 52.82764 4.64892 37253 ft 459 kts 63°
2026-04-20 14:09 52.85450 4.74504 37261 ft 460 kts 63°
2026-04-20 14:09 52.88111 4.84042 37261 ft 460 kts 63°
2026-04-20 14:10 52.90790 4.93672 37266 ft 460 kts 64°
2026-04-20 14:10 52.93449 5.03313 37265 ft 460 kts 64°
2026-04-20 14:11 52.96104 5.12979 37269 ft 460 kts 63°
2026-04-20 14:11 52.98755 5.22629 37268 ft 460 kts 64°
2026-04-20 14:12 53.01394 5.32296 37264 ft 460 kts 64°
2026-04-20 14:12 53.03979 5.41948 37265 ft 460 kts 65°
2026-04-20 14:13 53.06400 5.51787 37254 ft 459 kts 67°
2026-04-20 14:13 53.08740 5.61674 37260 ft 459 kts 67°
2026-04-20 14:14 53.11088 5.71559 37263 ft 459 kts 66°
2026-04-20 14:14 53.13459 5.81445 37270 ft 459 kts 67°
2026-04-20 14:15 53.15814 5.91249 37270 ft 459 kts 66°
2026-04-20 14:15 53.18175 6.01130 37267 ft 458 kts 68°
2026-04-20 14:16 53.20512 6.11008 37269 ft 458 kts 67°
2026-04-20 14:16 53.22845 6.20907 37272 ft 457 kts 67°
2026-04-20 14:17 53.25159 6.30800 37272 ft 457 kts 67°
2026-04-20 14:17 53.27466 6.40687 37267 ft 457 kts 67°
2026-04-20 14:18 53.29757 6.50512 37267 ft 456 kts 67°
2026-04-20 14:18 53.32051 6.60408 37261 ft 456 kts 68°
2026-04-20 14:19 53.34336 6.70321 37263 ft 456 kts 68°
2026-04-20 14:19 53.36607 6.80232 37260 ft 456 kts 68°
2026-04-20 14:20 53.38872 6.90166 37073 ft 456 kts 68°
2026-04-20 14:20 53.40000 6.95132 36436 ft 458 kts 68°
2026-04-20 14:20 53.41137 7.00142 35731 ft 460 kts 68°
2026-04-20 14:21 53.42271 7.05153 35232 ft 458 kts 68°
2026-04-20 14:21 53.43381 7.10068 34751 ft 455 kts 68°
2026-04-20 14:21 53.44493 7.15007 34238 ft 452 kts 69°
2026-04-20 14:21 53.45592 7.19899 33683 ft 449 kts 69°
2026-04-20 14:22 53.46684 7.24771 33193 ft 444 kts 70°
2026-04-20 14:22 53.47761 7.29586 32712 ft 438 kts 71°
2026-04-20 14:22 53.48826 7.34358 32231 ft 433 kts 71°
2026-04-20 14:22 53.49876 7.39062 31758 ft 428 kts 71°
2026-04-20 14:23 53.50916 7.43727 31266 ft 424 kts 71°
2026-04-20 14:23 53.51938 7.48318 30890 ft 416 kts 72°
2026-04-20 14:23 53.52942 7.52861 30385 ft 412 kts 72°
2026-04-20 14:23 53.53928 7.57339 29896 ft 406 kts 72°
2026-04-20 14:24 53.54903 7.61781 29418 ft 402 kts 72°
2026-04-20 14:24 53.55866 7.66174 28909 ft 399 kts 72°
2026-04-20 14:24 53.56815 7.70515 28484 ft 396 kts 72°
2026-04-20 14:24 53.57766 7.74863 28047 ft 391 kts 72°
2026-04-20 14:25 53.58685 7.79061 27676 ft 372 kts 72°
2026-04-20 14:25 53.59559 7.83053 27310 ft 356 kts 72°
2026-04-20 14:25 53.60395 7.86886 26953 ft 341 kts 72°
2026-04-20 14:25 53.61191 7.90557 26615 ft 327 kts 72°
2026-04-20 14:26 53.61956 7.94119 26291 ft 324 kts 72°
2026-04-20 14:26 53.62725 7.97702 25946 ft 325 kts 72°
2026-04-20 14:26 53.63491 8.01278 25605 ft 325 kts 72°
2026-04-20 14:26 53.64218 8.04871 25254 ft 323 kts 73°
2026-04-20 14:27 53.64910 8.08465 24900 ft 322 kts 74°
2026-04-20 14:27 53.65595 8.12121 24533 ft 338 kts 74°
2026-04-20 14:27 53.66304 8.15929 24143 ft 342 kts 74°
2026-04-20 14:27 53.67019 8.19743 23740 ft 341 kts 73°
2026-04-20 14:28 53.67737 8.23534 23294 ft 339 kts 73°
2026-04-20 14:28 53.68223 8.26091 23023 ft 338 kts 73°
2026-04-20 14:28 53.69167 8.31071 22498 ft 335 kts 73°
2026-04-20 14:28 53.69644 8.33603 22222 ft 334 kts 73°
2026-04-20 14:29 53.70348 8.37326 21803 ft 332 kts 72°
2026-04-20 14:29 53.71049 8.41023 21416 ft 330 kts 72°
2026-04-20 14:29 53.71747 8.44703 21016 ft 327 kts 72°
2026-04-20 14:29 53.72436 8.48347 20627 ft 325 kts 72°
2026-04-20 14:30 53.73119 8.51972 20226 ft 323 kts 72°
2026-04-20 14:30 53.73786 8.55535 19841 ft 321 kts 72°
2026-04-20 14:30 53.74453 8.59122 19446 ft 319 kts 72°
2026-04-20 14:30 53.75118 8.62698 19054 ft 318 kts 72°
2026-04-20 14:31 53.75777 8.66252 18658 ft 316 kts 72°
2026-04-20 14:31 53.76430 8.69782 18245 ft 314 kts 72°
2026-04-20 14:31 53.77077 8.73291 17838 ft 312 kts 72°
2026-04-20 14:31 53.77719 8.76770 17464 ft 309 kts 72°
2026-04-20 14:32 53.78215 8.80291 17076 ft 308 kts 85°
2026-04-20 14:32 53.77991 8.83858 16811 ft 307 kts 105°
2026-04-20 14:32 53.77000 8.87056 16545 ft 311 kts 126°
2026-04-20 14:32 53.75397 8.89542 16298 ft 312 kts 138°
2026-04-20 14:33 53.73704 8.91811 15945 ft 310 kts 137°
2026-04-20 14:33 53.72011 8.94063 15575 ft 309 kts 137°
2026-04-20 14:33 53.70325 8.96307 15183 ft 308 kts 138°
2026-04-20 14:33 53.68663 8.98521 14817 ft 308 kts 138°
2026-04-20 14:34 53.66984 9.00758 14435 ft 307 kts 138°
2026-04-20 14:34 53.65303 9.02996 14069 ft 307 kts 139°
2026-04-20 14:34 53.63629 9.05226 13655 ft 306 kts 137°
2026-04-20 14:34 53.61960 9.07453 13276 ft 304 kts 139°
2026-04-20 14:35 53.60306 9.09658 12904 ft 302 kts 138°
2026-04-20 14:35 53.58654 9.11851 12529 ft 301 kts 138°
2026-04-20 14:35 53.57012 9.14025 12161 ft 299 kts 138°
2026-04-20 14:35 53.55392 9.16197 11802 ft 296 kts 134°
2026-04-20 14:36 53.54142 9.18848 11468 ft 284 kts 115°
2026-04-20 14:36 53.53335 9.21837 10897 ft 278 kts 111°
2026-04-20 14:36 53.52589 9.24770 10291 ft 276 kts 111°
2026-04-20 14:36 53.51839 9.27762 9687 ft 272 kts 110°
2026-04-20 14:37 53.51110 9.30676 9057 ft 269 kts 110°
2026-04-20 14:37 53.50358 9.33528 8523 ft 264 kts 116°
2026-04-20 14:37 53.49402 9.36100 7966 ft 262 kts 121°
2026-04-20 14:37 53.48379 9.38618 7385 ft 260 kts 121°
2026-04-20 14:38 53.47368 9.41122 6821 ft 258 kts 118°
2026-04-20 14:38 53.46692 9.43878 6496 ft 254 kts 104°
2026-04-20 14:38 53.46163 9.46706 6179 ft 252 kts 104°
2026-04-20 14:38 53.45638 9.49495 5965 ft 247 kts 105°
2026-04-20 14:39 53.45128 9.52198 5838 ft 239 kts 105°
2026-04-20 14:39 53.44633 9.54818 5707 ft 231 kts 104°
2026-04-20 14:39 53.44209 9.57398 5322 ft 233 kts 94°
2026-04-20 14:39 53.44309 9.60035 5156 ft 223 kts 74°
2026-04-20 14:40 53.44909 9.62351 5033 ft 210 kts 56°
2026-04-20 14:40 53.45807 9.64226 4927 ft 201 kts 51°
2026-04-20 14:40 53.46691 9.65985 4789 ft 195 kts 51°
2026-04-20 14:40 53.47554 9.67706 4533 ft 192 kts 51°
2026-04-20 14:41 53.48411 9.69419 4303 ft 191 kts 51°
2026-04-20 14:41 53.49261 9.71117 4039 ft 189 kts 51°
2026-04-20 14:41 53.50102 9.72801 3779 ft 187 kts 52°
2026-04-20 14:41 53.50936 9.74469 3536 ft 186 kts 52°
2026-04-20 14:42 53.51755 9.76111 3277 ft 185 kts 51°
2026-04-20 14:42 53.52570 9.77743 3020 ft 178 kts 51°
2026-04-20 14:42 53.53361 9.79331 2794 ft 176 kts 50°
2026-04-20 14:42 53.54132 9.80879 2560 ft 169 kts 50°
2026-04-20 14:43 53.54875 9.82370 2309 ft 163 kts 50°
2026-04-20 14:43 53.55594 9.83815 2088 ft 158 kts 49°
2026-04-20 14:43 53.56277 9.85190 1882 ft 146 kts 49°
2026-04-20 14:43 53.56892 9.86427 1689 ft 132 kts 47°
2026-04-20 14:44 53.57479 9.87608 1504 ft 130 kts 48°
2026-04-20 14:44 53.58057 9.88773 1318 ft 130 kts 49°
2026-04-20 14:44 53.58633 9.89932 1130 ft 128 kts 49°
2026-04-20 14:44 53.59202 9.91078 952 ft 128 kts 50°
2026-04-20 14:45 53.59769 9.92222 771 ft 126 kts 49°
2026-04-20 14:45 53.60346 9.93383 593 ft 129 kts 50°
2026-04-20 14:45 53.60923 9.94545 409 ft 129 kts 50°
2026-04-20 14:45 53.61492 9.95693 234 ft 127 kts 51°
2026-04-20 14:46 53.62056 9.96838 89 ft 126 kts 50°
2026-04-20 14:46 53.62583 9.97909 44 ft 104 kts 49°
2026-04-20 14:46 53.62946 9.98639 45 ft 58 kts 50°
2026-04-20 14:46 53.63077 9.98946 45 ft 17 kts 64°
2026-04-20 14:47 53.63172 9.99103 46 ft 24 kts 46°
2026-04-20 14:47 53.63280 9.99369 47 ft 28 kts 72°
2026-04-20 14:47 53.63280 9.99635 48 ft 12 kts 99°
2026-04-20 14:48 53.63269 9.99704 45 ft 3 kts 140°
2026-04-20 14:48 53.63210 9.99735 48 ft 12 kts 154°
2026-04-20 14:48 53.63134 9.99799 48 ft 12 kts 153°
2026-04-20 14:48 53.63059 9.99865 48 ft 13 kts 153°
2026-04-20 14:49 53.62993 9.99930 48 ft 9 kts 133°
2026-04-20 14:49 53.62935 10.00008 48 ft 12 kts 153°
2026-04-20 14:49 53.62927 10.00112 48 ft 11 kts 36°
2026-04-20 14:49 53.62947 10.00181 48 ft 8 kts 96°
2026-04-20 14:50 53.62931 10.00269 48 ft 6 kts 108°
2026-04-20 14:50 53.62927 10.00291 48 ft 0 kts 108°